Weather History for Asyut, Egypt

Change the Weather History Date:

Tuesday, January 21, 2014

  Actual Average Record
Temperature  
Mean Temperature 58 °F -  
Max Temperature 77 °F 70 °F - ()
Min Temperature 40 °F 42 °F - ()
Degree Days  
Heating Degree Days 6    
Growing Degree Days 8 (Base 50)    
Moisture  
Dew Point 37 °F    
Average Humidity 43    
Maximum Humidity 72    
Minimum Humidity 16    
Precipitation  
Precipitation 0.00 in 0.00 in - ()
Sea Level Pressure  
Sea Level Pressure 30.10 in    
Wind  
Wind Speed 2 mph ()    
Max Wind Speed 4 mph    
Max Gust Speed -    
Visibility 6.0 miles    
Events      
T = Trace of Precipitation, MM = Missing Value Source: Averaged Metar Reports

Daily Weather History Graph

Daily Weather History Graph

Search for Another Location

Airport:

Trip Planner

Search our weather history database for the weather conditions in past years. The results will help you decide how hot, cold, wet, or windy it might be!

Date:

Astronomy

Jan. 21, 2014 Rise Set
Actual Time 6:45 AM EET 5:28 PM EET
Civil Twilight 6:20 AM EET 5:53 PM EET
Nautical Twilight 5:52 AM EET 6:22 PM EET
Astronomical Twilight 5:24 AM EET 6:49 PM EET
Moon 10:09 PM EET (1/21) 9:35 AM EET (1/21)
Length of Visible Light 11h 32m
Length of Day
10h 43m
Waning Gibbous, 77% of the Moon is Illuminated
Jan 21
Waning Gibbous
Jan 24
Last Quarter
Jan 30
New
Feb 6
First Quarter
Feb 15
Full

Hourly Weather History & Observations

Time (EET) Temp. Dew Point Humidity Pressure Visibility Wind Dir Wind Speed Gust Speed Precip Events Conditions
12:00 AM 53.6 °F 44.6 °F 72% 30.12 in - WNW 2.3 mph - N/A   Clear
1:00 AM 51.8 °F 42.8 °F 71% 30.12 in - WNW 2.3 mph - N/A   Clear
2:00 AM 48 °F 34 °F 46% 30.13 in 6 mi Calm Calm - -  
2:00 AM 48.2 °F 33.8 °F 58% 30.12 in - Calm Calm - N/A   Clear
3:00 AM 48.2 °F 33.8 °F 58% 30.12 in - Calm Calm - N/A   Clear
4:00 AM 46.4 °F 32.0 °F 57% 30.12 in - Calm Calm - N/A   Clear
5:00 AM 46.4 °F 33.8 °F 62% 30.09 in - Calm Calm - N/A   Clear
6:00 AM 44.6 °F 33.8 °F 66% 30.09 in - Calm Calm - N/A   Clear
7:00 AM 41.0 °F 26.6 °F 57% 30.12 in - South 1.2 mph - N/A   Clear
8:00 AM 43 °F 30 °F 48% 30.16 in 6 mi South 2.3 mph - -  
8:00 AM 42.8 °F 30.2 °F 61% 30.12 in - South 2.3 mph - N/A   Clear
9:00 AM 48.2 °F 32.0 °F 54% 30.12 in - WSW 1.2 mph - N/A   Clear
10:00 AM 60.8 °F 37.4 °F 42% 30.12 in - Calm Calm - N/A   Clear
11:00 AM 69 °F 36 °F 19% 30.12 in 6 mi NNW 2.3 mph - -  
11:00 AM 68.0 °F 35.6 °F 30% 30.12 in - NNW 2.3 mph - N/A   Clear
12:00 PM 69.8 °F 37.4 °F 31% 30.09 in - NNW 2.3 mph - N/A   Clear
1:00 PM 75.2 °F 35.6 °F 24% 30.06 in - North 2.3 mph - N/A   Clear
2:00 PM 78 °F 40 °F 16% 30.04 in 6 mi NW 2.3 mph - -  
2:00 PM 77.0 °F 41.0 °F 28% 30.06 in - NW 2.3 mph - N/A   Clear
3:00 PM 77.0 °F 41.0 °F 28% 30.06 in - NNW 3.5 mph - N/A   Clear
4:00 PM 77.0 °F 41.0 °F 28% 30.06 in - NNW 3.5 mph - N/A   Clear
5:00 PM 75 °F 39 °F 17% 30.04 in 6 mi NNW 3.5 mph - -  
5:00 PM 75.2 °F 39.2 °F 27% 30.06 in - NNW 3.5 mph - N/A   Clear
6:00 PM 71.6 °F 39.2 °F 31% 30.06 in - NNW 3.5 mph - N/A   Clear
7:00 PM 69.8 °F 39.2 °F 33% 30.06 in - NW 3.5 mph - N/A   Clear
8:00 PM 61 °F 39 °F 32% 30.10 in 6 mi NNW 3.5 mph - -  
8:00 PM 60.8 °F 39.2 °F 45% 30.09 in - NNW 3.5 mph - N/A   Clear
9:00 PM 59.0 °F 39.2 °F 48% 30.09 in - NW 1.2 mph - N/A   Clear
10:00 PM 57.2 °F 39.2 °F 51% 30.09 in - NNW 2.3 mph - N/A   Clear
11:00 PM 53 °F 36 °F 40% 30.12 in 6 mi NW 1.2 mph - -  
11:00 PM 51.8 °F 35.6 °F 54% 30.09 in - NW 1.2 mph - N/A   Clear